Weather in Beldyazhki

Russia / Oryol Oblast     52°37′32″N   35°42′23″E
temp.,
°C
wind,
m/s
gust,
m/s
humid.,
%
clouds,
%
prec.,
mm/h
press.,
hPa
HPBL,
m
12 may, wed
wed1200:00+6e310890 0.0 1024233
03:00+5e35944 0.0 102598
06:00+5ene39935 0.0 1025232
09:00+11e577132 0.0 1024681
12:00+14ene5661100 0.0 10221532
15:00+12ene566894 0.3 10201024
18:00+13e477028 0.1 10171139
21:00+8ese41191100 0.4 1017273
13 may, thu
thu1300:00+9e5119484 0.7 1016419
03:00+8sse41095100 4.1 1016638
06:00+8ese5119629 0.1 1016434
09:00+11sse698389 0.2 1016916
12:00+13sse5871100 0.4 10151255
15:00+14ssw576154 0.6 10141672
18:00+14ssw357158 0.0 10141100
21:00+9se228224 0.0 101510
14 may, fri
fri1400:00+9ese3388100 0.0 101635
03:00+8ese3694100 0.0 1016100
06:00+10ese4109354 0.0 1015239
09:00+15ese61087100 1.3 1014493
12:00+20se7107236 0.1 10121205
15:00+21sse710766 2.9 10111172
18:00+20s61182100 1.6 1010630
21:00+15sse41192100 2.9 1010202
15 may, sat
sat1500:00+15sse3392100 2.3 101046
03:00+14se359592 3.2 101093
06:00+13s2497100 0.0 100996
09:00+18ssw3581100 0.1 1009503
12:00+20ssw57722 2.1 10091219
15:00+20sw677095 4.1 10101259
18:00+16sw5884100 3.2 1010270
21:00+13wsw499448 4.1 1012216
16 may, sun
sun1600:00+11wsw37940 0.0 1013129
03:00+10wsw34910 0.0 101454
06:00+10sw34900 0.0 101584
09:00+16sw34763 0.0 1016476
12:00+19sw346421 0.0 10161333
15:00+20w1256100 0.0 10161460
18:00+20ene2270100 0.0 101578
21:00+14ene3381100 0.0 101621